Flag for Norway Weather past 2 weeks in Knarvik, Norway

Now
43 °F

Quite cool.


Feels Like: 41 °F
Forecast: 36 / 43 °F
Wind: 3 mph from South

Location: Bergen / Florida

Current Time: Apr 25, 2015 at 7:35:03 AM

Latest Report: Apr 25, 2015 at 6:00 AM


Visibility: N/A

Pressure: 29.41 "Hg

Humidity: 85%

Dew point: 38 °F

Location of KnarvikLocation

Historic Weather in Knarvik — Graph

°F

Knarvik temperature yesterday

Maximum temperature yesterday: 43 °F (at 11:00 AM)
Minimum temperature yesterday: 38 °F (at 6:00 AM)
Average temperature yesterday: 41 °F

Past Weeks' High & Low Weather Summary

 TemperatureHumidityPressure
High65 °F (Apr 20, 2:00 PM)89% (Apr 21, 4:00 AM)30.46 "Hg (Apr 21, 4:00 AM)
Low35 °F (Apr 13, 6:00 AM)26% (Apr 20, 2:00 PM)29.41 "Hg (Apr 25, 6:00 AM)
Average45 °F70%30.04 "Hg
* Reported Apr 10 6:00 AM — Apr 25 6:00 AM, Knarvik, Weather by CustomWeather, © 2015

Note: Actual official high and low records may vary slightly from our data, if they occured in-between our weather recording intervals... More about our weather records

Advertising

Knarvik weather history for previous 24 hours

 ConditionsComfort  
Time TempWeatherWind HumidityBarometerVisibility
6:00 AM
Sat, Apr 25
43 °FQuite cool.3 mph85%29.41 "HgN/A
5:00 AM43 °FQuite cool.3 mph85%29.44 "HgN/A
4:00 AM44 °FQuite cool.5 mph83%29.47 "HgN/A
3:00 AM44 °FQuite cool.7 mph85%29.47 "HgN/A
1:00 AM43 °FQuite cool.6 mph88%29.50 "HgN/A
12:00 AM41 °FQuite cool.3 mph86%29.53 "HgN/A
10:00 PM
Fri, Apr 24
41 °FQuite cool.3 mph83%29.57 "HgN/A
9:00 PM41 °FQuite cool.3 mph84%29.58 "HgN/A
8:00 PM41 °FRain. Low clouds.5 mph83%29.59 "Hg16 mi
7:00 PM41 °FQuite cool.6 mph81%29.61 "HgN/A
6:00 PM42 °FQuite cool.3 mph82%29.63 "HgN/A
5:00 PM41 °FRain. Low clouds.6 mph79%29.64 "Hg16 mi
4:00 PM41 °FQuite cool.6 mph80%29.66 "HgN/A
3:00 PM41 °FQuite cool.5 mph78%29.68 "HgN/A
2:00 PM42 °FLight rain. Overcast.2 mph75%29.69 "Hg12 mi
1:00 PM42 °FQuite cool.1 mph72%29.70 "HgN/A
12:00 PM41 °FQuite cool.2 mph74%29.71 "HgN/A
11:00 AM43 °FOvercast.3 mph67%29.70 "Hg19 mi
10:00 AM42 °FQuite cool.2 mph80%29.70 "HgN/A
9:00 AM41 °FQuite cool.5 mph82%29.70 "HgN/A
8:00 AM40 °FOvercast.5 mph83%29.71 "Hg16 mi
7:00 AM40 °FChilly.2 mph83%29.71 "HgN/A
Weather by CustomWeather, © 2015

See weather overviewHow to use our weather pages